Regional Weather Roundup
Issued by NWS Cleveland, OH

Home | Current Version | Previous Version | Graphics & Text | Print | Product List | Glossary On
Versions: 1 2 3 4 5 6 7 8 9 10 11 12 13 14 15 16 17 18 19 20 21 22 23 24 25 26 27 28 29 30 31 32 33 34 35 36 37 38 39 40 41 42 43 44 45 46 47 48 49 50
336
ASUS41 KCLE 180902
RWRCLE
OHIO REGIONAL WEATHER ROUNDUP
NATIONAL WEATHER SERVICE CLEVELAND, OH
500 AM EDT WED OCT 18 2017

NOTE: "FAIR" INDICATES FEW OR NO CLOUDS BELOW 12,000 FEET WITH NO
SIGNIFICANT WEATHER AND/OR OBSTRUCTIONS TO VISIBILITY.

OHZ001>008-015>018-024>027-034-035-043-044-181000-
   NORTHWEST OHIO

CITY           SKY/WX    TMP DP  RH WIND       PRES   REMARKS
DEFIANCE       CLEAR     46  38  73 SW5       30.24R
FINDLAY        CLEAR     43  37  79 S9        30.25R
TOLEDO EXPRESS CLEAR     43  42  97 CALM      30.23R
TOLEDO EXEC    CLEAR     46  39  76 CALM      30.25R
LIMA           CLEAR     44  40  85 S8        30.27R
$$

OHZ009>014-019>023-028>033-038-089-181000-
   NORTHEAST OHIO

CITY           SKY/WX    TMP DP  RH WIND       PRES   REMARKS
CLE-HOPKINS    PTCLDY    49  40  71 S6        30.29R
CLE-LAKEFRONT  CLEAR     52  39  61 S8        30.26R
CUY CO. ARPT   NOT AVBL
LORAIN-ELYRIA  CLEAR     43  35  73 S5        30.27S
ASHTABULA      CLEAR     46  40  79 SW3       30.28R
AKRON-CANTON   CLEAR     45  38  76 S3        30.29R
WOOSTER        CLEAR     37  36  96 CALM      30.29R
MANSFIELD      CLEAR     43  39  86 S5        30.27S
YOUNGSTOWN     PTCLDY    46  39  76 S6        30.28S
$$

OHZ042-051>053-060>062-070>072-077>081-181000-
  SOUTHWEST OHIO

CITY           SKY/WX    TMP DP  RH WIND       PRES   REMARKS
CINC-COVINGTON CLEAR     47  40  76 NE3       30.27S
CINC-LUNKEN    PTCLDY    39  38  96 CALM      30.30S FOG
HAMILTON       CLEAR     37  36  96 CALM      30.30R
DAYTON         CLEAR     44  42  93 S6        30.29S
WRIGHT-PAT AFB CLEAR     42  40  94 CALM      30.28S
DAYTON GENERAL CLEAR     44  39  82 SE3       30.28S
WILMINGTON     CLEAR     45  40  82 CALM      30.29S
$$

OHZ036-037-039>041-045>050-054>059-063>069-073>076-082>088-181000-
  CENTRAL AND SOUTHEAST OHIO

CITY           SKY/WX    TMP DP  RH WIND       PRES   REMARKS
COLUMBUS       CLEAR     43  41  93 CALM      30.29S
OSU AIRPORT    CLEAR     43  42  97 CALM      30.29S
BOLTON FIELD   CLEAR     40  38  95 CALM      30.30R
RICKENBACK AFB CLEAR     41  40  97 CALM      30.29S
NEWARK         CLEAR     39  36  89 CALM      30.30R
MARION         CLEAR     43  38  82 S7        30.29R
LANCASTER      CLEAR     39  38  96 CALM      30.30S
ZANESVILLE     CLEAR     40  37  89 CALM      30.30S
NEW PHILLY     NOT AVBL
$$




USA.gov is the U.S. government's official web portal to all federal, state and local government web resources and services.